Terminal Aerodrome Forecast
Issued by NWS

Home | Current Version | Previous Version | Text Only | Print | Product List | Glossary On
Versions: 1 2 3 4 5 6 7 8 9 10 11 12 13
000
FTUS44 KSJT 302336
TAFBBD
TAF
KBBD 302336Z 3100/3124 VRB05KT P6SM SCT120
     FM311400 19008KT P6SM FEW250
     FM311900 16007KT P6SM SCT080=

USA.gov is the U.S. government's official web portal to all federal, state and local government web resources and services.